Bryce Canyon, UT

10:25 PM MST on December 09, 2019 (GMT -0700)
Bryce Canyon

Weather History for KBCE - August, 2019

Change the Weather History Date:

Friday, August 30, 2019

  Actual Average Record
Temperature  
Mean Temperature 64 °F -  
Max Temperature 84 °F 75 °F 85 °F (1985)
Min Temperature 43 °F 43 °F 32 °F (1962)
Degree Days  
Heating Degree Days 2    
Growing Degree Days 14 (Base 50)    
Moisture  
Dew Point 37 °F    
Average Humidity 43    
Maximum Humidity 82    
Minimum Humidity 14    
Precipitation  
Precipitation 0.00 in - - ()
Sea Level Pressure  
Sea Level Pressure 30.00 in    
Wind  
Wind Speed 4 mph (West)    
Max Wind Speed 14 mph    
Max Gust Speed 21 mph    
Visibility 10 miles    
Events      
Averages and records for this station are not official NWS values.
T = Trace of Precipitation, MM = Missing Value Source: NWS Daily Summary

Daily Weather History Graph

Daily Weather History Graph

Search for Another Location

Airport or City:

Astronomy

Aug. 30, 2019 Rise Set
Actual Time 6:56 AM MDT 8:00 PM MDT
Civil Twilight 6:29 AM MDT 8:27 PM MDT
Nautical Twilight 5:57 AM MDT 8:59 PM MDT
Astronomical Twilight 5:24 AM MDT 9:32 PM MDT
Moon 7:03 AM MDT (8/30) 8:39 PM MDT (8/30)
Length of Visible Light 13h 57m
Length of Day
13h 03m
New Moon, 0% of the Moon is Illuminated
Aug 30
New Moon
Sep 5
First Quarter
Sep 13
Full
Sep 21
Last Quarter
Sep 28
New

Hourly Weather History & Observations

Time (MDT) Temp. Windchill Dew Point Humidity Pressure Visibility Wind Dir Wind Speed Gust Speed Precip Events Conditions
12:53 AM 46.0 °F 44.8 °F 39.0 °F 76% 30.03 in 9.0 mi SW 3.5 mph - N/A   Clear
1:53 AM 46.0 °F - 37.9 °F 73% 30.04 in 10.0 mi Calm Calm - N/A   Clear
2:53 AM 43.0 °F - 37.0 °F 80% 30.09 in 10.0 mi Calm Calm - N/A   Clear
3:53 AM 45.0 °F - 37.9 °F 76% 30.01 in 10.0 mi Calm Calm - N/A   Clear
4:53 AM 45.0 °F 42.6 °F 37.9 °F 76% 30.01 in 10.0 mi West 4.6 mph - N/A   Clear
5:53 AM 46.0 °F - 39.0 °F 76% 30.01 in 10.0 mi Calm Calm - N/A   Clear
6:53 AM 43.0 °F - 37.9 °F 82% 30.04 in 10.0 mi Calm Calm - N/A   Clear
7:53 AM 55.0 °F - 44.1 °F 67% 30.02 in 10.0 mi WNW 3.5 mph - N/A   Clear
8:53 AM 64.9 °F - 44.1 °F 47% 30.04 in 10.0 mi Calm Calm - N/A   Clear
9:53 AM 73.0 °F - 43.0 °F 34% 30.04 in 10.0 mi NW 4.6 mph - N/A   Clear
10:53 AM 77.0 °F - 42.1 °F 29% 30.02 in 10.0 mi North - - N/A   Clear
11:53 AM 79.0 °F - 39.0 °F 24% 30.03 in 10.0 mi West 8.1 mph - N/A   Clear
12:53 PM 82.0 °F - 36.0 °F 19% 30.01 in 10.0 mi NW 9.2 mph 20.7 mph N/A   Clear
1:53 PM 84.0 °F - 30.9 °F 15% 29.99 in 10.0 mi WSW 13.8 mph 20.7 mph N/A   Clear
2:53 PM 84.9 °F - 33.1 °F 16% 29.98 in 10.0 mi West 11.5 mph - N/A   Clear
3:53 PM 84.0 °F - 32.0 °F 15% 29.95 in 10.0 mi WSW 9.2 mph - N/A   Clear
4:53 PM 84.9 °F - 30.9 °F 14% 29.94 in 10.0 mi Variable 3.5 mph - N/A   Scattered Clouds
5:53 PM 80.1 °F - 33.1 °F 18% 29.95 in 10.0 mi NW 11.5 mph - N/A   Partly Cloudy
6:53 PM 81.0 °F - 35.1 °F 19% 29.95 in 10.0 mi NW 11.5 mph - N/A   Clear
7:53 PM 75.9 °F - 34.0 °F 22% 29.93 in 10.0 mi WNW 9.2 mph - N/A   Clear
8:53 PM 66.0 °F - 34.0 °F 30% 29.95 in 10.0 mi West 10.4 mph - N/A   Clear
9:53 PM 63.0 °F - 35.1 °F 35% 29.96 in 10.0 mi West 9.2 mph - N/A   Clear
10:53 PM 60.1 °F - 36.0 °F 41% 29.96 in 10.0 mi WNW 6.9 mph - N/A   Clear
11:53 PM 53.1 °F - 34.0 °F 48% 29.99 in 10.0 mi Calm Calm - N/A   Clear